Overview Statistics Trail Chart Weather Telemetry Raw packets
 

This is the latest recevied weather packets stored in our database for station/object S51UL-6. If no packets are shown the sender has not sent any weather packets the latest 10 day(s).

<< 46 47 48 49 50 51 52 >>
Time Temp. Humidity Pressure Rain* Wind** Luminosity Snow
1788252099 22.78° C 78% 1022.8 hPa 0 mm - - -
1788251799 22.78° C 79% 1022.6 hPa 0 mm - - -
1788250898 22.78° C 84% 1022.5 hPa 0 mm - - -
1788249999 20.56° C 89% 1022.7 hPa 0 mm - - -
1788249699 20° C 90% 1022.5 hPa 0 mm - - -
1788249099 18.89° C 88% 1022.5 hPa 0 mm - - -
1788248200 18.89° C 89% 1022.7 hPa 0 mm - - -
1788247900 18.89° C 90% 1022.5 hPa 0 mm - - -
1788247599 18.33° C 90% 1022.5 hPa 0 mm - - -
1788247299 18.33° C 90% 1022.3 hPa 0 mm - - -
1788244900 16.67° C 90% 1022.2 hPa 0 mm - - -
1788244300 16.67° C 90% 1021.9 hPa 0 mm - - -
1788243100 16.67° C 90% 1022 hPa 0 mm - - -
1788242501 16.67° C 90% 1021.9 hPa 0 mm - - -
1788241301 16.11° C 90% 1021.8 hPa 0 mm - - -
1788241001 16.11° C 90% 1021.9 hPa 0 mm - - -
1788240100 16.11° C 90% 1021.6 hPa 0 mm - - -
1788239800 16.11° C 90% 1021.5 hPa 0 mm - - -
1788239500 15.56° C 90% 1021.6 hPa 0 mm - - -
1788239201 15.56° C 90% 1021.5 hPa 0 mm - - -
1788238301 15.56° C 90% 1021.2 hPa 0 mm - - -
1788237701 15.56° C 90% 1021.4 hPa 0 mm - - -
1788237403 15.56° C 90% 1021.4 hPa 0 mm - - -
1788237102 15.56° C 90% 1021.4 hPa 0 mm - - -
1788236201 15.56° C 90% 1021.1 hPa 0 mm - - -

* Rain latest hour (hover to see other rain measurements)
** Current wind speed in m/s (hover to see current wind gust speed)